TimeEDT,TemperatureF,Dew PointF,Humidity,Sea Level PressureIn,VisibilityMPH,Wind Direction,Wind SpeedMPH,Gust SpeedMPH,PrecipitationIn,Events,Conditions,WindDirDegrees,DateUTC
12:54 AM,57.0,48.9,74,30.15,10.0,SE,8.1,-,N/A,,Clear,140,2013-09-29 04:54:00
1:54 AM,55.0,48.0,77,30.15,10.0,SE,8.1,-,N/A,,Partly Cloudy,140,2013-09-29 05:54:00
2:54 AM,54.0,48.0,80,30.13,10.0,SE,6.9,-,N/A,,Partly Cloudy,140,2013-09-29 06:54:00
3:54 AM,53.1,46.9,80,30.11,10.0,SE,5.8,-,N/A,,Clear,130,2013-09-29 07:54:00
4:54 AM,52.0,46.0,80,30.10,10.0,SSE,5.8,-,N/A,,Clear,150,2013-09-29 08:54:00
5:54 AM,52.0,46.0,80,30.10,10.0,SSE,6.9,-,N/A,,Partly Cloudy,150,2013-09-29 09:54:00
6:54 AM,51.1,46.0,83,30.10,10.0,South,4.6,-,N/A,,Partly Cloudy,170,2013-09-29 10:54:00
7:54 AM,55.9,48.9,77,30.10,10.0,SSW,5.8,-,N/A,,Mostly Cloudy,200,2013-09-29 11:54:00
8:54 AM,59.0,48.9,69,30.10,10.0,South,3.5,-,N/A,,Scattered Clouds,180,2013-09-29 12:54:00
9:54 AM,63.0,48.9,60,30.10,10.0,South,9.2,-,N/A,,Scattered Clouds,190,2013-09-29 13:54:00
10:54 AM,64.9,51.1,61,30.09,10.0,SSW,11.5,-,N/A,,Scattered Clouds,210,2013-09-29 14:54:00
11:54 AM,69.1,52.0,54,30.07,10.0,South,8.1,-,N/A,,Scattered Clouds,190,2013-09-29 15:54:00
12:54 PM,71.1,53.1,53,30.06,10.0,South,8.1,-,N/A,,Scattered Clouds,190,2013-09-29 16:54:00
1:54 PM,73.9,53.1,48,30.03,10.0,South,8.1,-,N/A,,Mostly Cloudy,190,2013-09-29 17:54:00
2:54 PM,73.9,53.1,48,30.02,10.0,SW,9.2,-,N/A,,Mostly Cloudy,220,2013-09-29 18:54:00
3:54 PM,73.0,54.0,51,30.00,10.0,Variable,4.6,-,N/A,,Overcast,0,2013-09-29 19:54:00
4:54 PM,73.0,54.0,51,29.99,10.0,SSW,8.1,-,N/A,,Mostly Cloudy,200,2013-09-29 20:54:00
5:54 PM,72.0,54.0,53,30.00,10.0,SW,3.5,-,N/A,,Mostly Cloudy,230,2013-09-29 21:54:00
6:54 PM,71.1,54.0,55,30.00,10.0,SW,3.5,-,N/A,,Mostly Cloudy,220,2013-09-29 22:54:00
7:54 PM,69.1,54.0,58,30.00,10.0,Calm,Calm,-,N/A,,Mostly Cloudy,0,2013-09-29 23:54:00
8:54 PM,68.0,55.0,63,30.02,10.0,Calm,Calm,-,N/A,,Mostly Cloudy,0,2013-09-30 00:54:00
9:54 PM,66.9,55.0,66,30.02,10.0,Calm,Calm,-,N/A,,Mostly Cloudy,0,2013-09-30 01:54:00
10:54 PM,63.0,55.9,78,30.01,10.0,SSE,5.8,-,N/A,,Mostly Cloudy,150,2013-09-30 02:54:00
11:54 PM,62.1,55.0,78,30.01,10.0,SSE,5.8,-,N/A,,Mostly Cloudy,160,2013-09-30 03:54:00